When you browse on this site, cookies collect data to enhance your experience and personalize the content and advertising you see.
Visit our Privacy Policy to learn more. By continuing to use the site, you agree to this use of cookies and data.
  • Em Portugal
  • Lista de países
  • Para 7 dias
  • Temperatura da água
  • Mapas de satélite
  • Mapa do tempo
  • Widgets de tempo
  • user-avatar
    Iniciar Sessão

    Previsão horária em Zimniki

    Hoje, 16 Julho, Terça-feira

    Tempo Temperatura Precipitação Vento Pressão Humidade
    00:00 +16°C° 0 mm 1 m/s 748 mmHg 92%
    01:00 +16°C° 0 mm 1 m/s 748 mmHg 93%
    02:00 +16°C° 0 mm 1 m/s 748 mmHg 94%
    03:00 +15°C° 0 mm 1 m/s 748 mmHg 95%
    04:00 +16°C° 0 mm 1 m/s 748 mmHg 93%
    05:00 +16°C° 0 mm 1 m/s 749 mmHg 91%
    06:00 +18°C° 0 mm 1 m/s 749 mmHg 89%
    07:00 +20°C° 0 mm 1 m/s 749 mmHg 82%
    08:00 +22°C° 0 mm 1 m/s 749 mmHg 75%
    09:00 +23°C° 0 mm 1 m/s 749 mmHg 71%
    10:00 +24°C° 0 mm 1 m/s 749 mmHg 67%
    11:00 +25°C° 0 mm 1 m/s 749 mmHg 64%
    12:00 +26°C° 0 mm 2 m/s 748 mmHg 61%
    13:00 +26°C° 0.1 mm 2 m/s 748 mmHg 63%
    14:00 +25°C° 0.1 mm 1 m/s 747 mmHg 65%
    15:00 +25°C° 0 mm 1 m/s 747 mmHg 66%
    16:00 +25°C° 0 mm 1 m/s 747 mmHg 67%
    17:00 +25°C° 0 mm 1 m/s 747 mmHg 69%
    18:00 +25°C° 0 mm 1 m/s 747 mmHg 71%
    19:00 +23°C° 0 mm 1 m/s 747 mmHg 77%
    20:00 +21°C° 0 mm 1 m/s 747 mmHg 83%
    21:00 +20°C° 0 mm 1 m/s 747 mmHg 89%
    22:00 +19°C° 0 mm 1 m/s 747 mmHg 91%
    23:00 +19°C° 0 mm 1 m/s 747 mmHg 93%

    Amanhã, 17 Julho, Quarta-feira

    Tempo Temperatura Precipitação Vento Pressão Humidade
    00:00 +18°C° 0 mm 1 m/s 747 mmHg 96%
    01:00 +18°C° 0 mm 1 m/s 747 mmHg 96%
    02:00 +18°C° 0 mm 1 m/s 747 mmHg 96%
    03:00 +18°C° 0 mm 1 m/s 747 mmHg 96%
    04:00 +18°C° 0 mm 1 m/s 747 mmHg 94%
    05:00 +18°C° 0 mm 1 m/s 747 mmHg 92%
    06:00 +19°C° 0 mm 1 m/s 747 mmHg 90%
    07:00 +21°C° 0 mm 1 m/s 747 mmHg 81%
    08:00 +23°C° 0 mm 1 m/s 747 mmHg 72%
    09:00 +26°C° 0 mm 2 m/s 747 mmHg 63%
    10:00 +27°C° 0 mm 2 m/s 746 mmHg 60%
    11:00 +27°C° 0 mm 2 m/s 746 mmHg 57%
    12:00 +28°C° 0 mm 2 m/s 746 mmHg 55%
    13:00 +28°C° 0 mm 2 m/s 745 mmHg 60%
    14:00 +27°C° 0 mm 2 m/s 745 mmHg 65%
    15:00 +26°C° 0 mm 2 m/s 744 mmHg 70%
    16:00 +26°C° 0 mm 2 m/s 744 mmHg 72%
    17:00 +26°C° 0 mm 1 m/s 744 mmHg 75%
    18:00 +26°C° 0 mm 1 m/s 744 mmHg 77%
    19:00 +25°C° 0.3 mm 1 m/s 744 mmHg 83%
    20:00 +24°C° 0.3 mm 1 m/s 744 mmHg 90%
    21:00 +22°C° 0.3 mm 1 m/s 744 mmHg 96%
    22:00 +22°C° 1 mm 1 m/s 744 mmHg 96%
    23:00 +22°C° 1 mm 1 m/s 744 mmHg 97%

    Depois de amanhã, 18 Julho, Quinta-feira

    Tempo Temperatura Precipitação Vento Pressão Humidade
    00:00 +21°C° 1 mm 1 m/s 744 mmHg 98%
    01:00 +21°C° 1.2 mm 1 m/s 743 mmHg 98%
    02:00 +20°C° 1.2 mm 2 m/s 743 mmHg 98%
    03:00 +20°C° 1.2 mm 2 m/s 743 mmHg 98%
    04:00 +20°C° 1.3 mm 2 m/s 743 mmHg 98%
    05:00 +20°C° 1.3 mm 2 m/s 743 mmHg 98%
    06:00 +20°C° 1.3 mm 2 m/s 743 mmHg 98%
    07:00 +21°C° 0.1 mm 2 m/s 743 mmHg 95%
    08:00 +23°C° 0.1 mm 2 m/s 743 mmHg 92%
    09:00 +23°C° 0.1 mm 2 m/s 742 mmHg 90%
    10:00 +24°C° 0 mm 2 m/s 743 mmHg 85%
    11:00 +25°C° 0 mm 3 m/s 743 mmHg 80%
    12:00 +26°C° 0 mm 3 m/s 743 mmHg 75%
    13:00 +28°C° 0.2 mm 3 m/s 742 mmHg 72%
    14:00 +29°C° 0.2 mm 3 m/s 742 mmHg 68%
    15:00 +30°C° 0.2 mm 3 m/s 741 mmHg 64%
    16:00 +29°C° 0.4 mm 3 m/s 741 mmHg 71%
    17:00 +28°C° 0.4 mm 2 m/s 741 mmHg 77%
    18:00 +27°C° 0.4 mm 2 m/s 742 mmHg 83%
    19:00 +26°C° 0.5 mm 2 m/s 742 mmHg 87%
    20:00 +24°C° 0.5 mm 1 m/s 742 mmHg 92%
    21:00 +23°C° 0.5 mm 1 m/s 742 mmHg 96%
    22:00 +22°C° 0 mm 1 m/s 743 mmHg 96%
    23:00 +22°C° 0 mm 1 m/s 743 mmHg 97%

    19 Julho, Sexta-feira

    Tempo Temperatura Precipitação Vento Pressão Humidade
    00:00 +22°C° 0 mm 1 m/s 743 mmHg 97%
    01:00 +21°C° 0 mm 1 m/s 743 mmHg 98%
    02:00 +21°C° 0 mm 1 m/s 743 mmHg 98%
    03:00 +21°C° 0 mm 1 m/s 743 mmHg 98%
    04:00 +21°C° 0 mm 1 m/s 743 mmHg 98%
    05:00 +21°C° 0 mm 1 m/s 743 mmHg 98%
    06:00 +21°C° 0 mm 1 m/s 743 mmHg 98%
    07:00 +23°C° 0 mm 1 m/s 743 mmHg 90%
    08:00 +25°C° 0 mm 1 m/s 743 mmHg 83%
    09:00 +26°C° 0 mm 2 m/s 743 mmHg 76%
    10:00 +27°C° 0 mm 2 m/s 743 mmHg 73%
    11:00 +28°C° 0 mm 2 m/s 743 mmHg 69%
    12:00 +29°C° 0 mm 2 m/s 743 mmHg 66%
    13:00 +29°C° 0.4 mm 2 m/s 743 mmHg 69%
    14:00 +29°C° 0.4 mm 2 m/s 742 mmHg 72%
    15:00 +29°C° 0.4 mm 2 m/s 742 mmHg 75%
    16:00 +29°C° 1 mm 2 m/s 742 mmHg 80%
    17:00 +28°C° 1 mm 1 m/s 743 mmHg 85%
    18:00 +28°C° 1 mm 1 m/s 743 mmHg 89%
    19:00 +26°C° 0.4 mm 1 m/s 743 mmHg 92%
    20:00 +25°C° 0.4 mm 1 m/s 743 mmHg 94%
    21:00 +23°C° 0.4 mm 1 m/s 744 mmHg 96%
    22:00 +23°C° 0.1 mm 1 m/s 744 mmHg 96%
    23:00 +22°C° 0.1 mm 1 m/s 744 mmHg 97%

    20 Julho, Sábado

    Tempo Temperatura Precipitação Vento Pressão Humidade
    00:00 +22°C° 0.1 mm 1 m/s 744 mmHg 97%
    01:00 +21°C° 0 mm 1 m/s 744 mmHg 97%
    02:00 +21°C° 0 mm 1 m/s 744 mmHg 97%
    03:00 +21°C° 0 mm 1 m/s 744 mmHg 97%
    04:00 +21°C° 0 mm 1 m/s 745 mmHg 97%
    05:00 +21°C° 0 mm 1 m/s 745 mmHg 97%
    06:00 +22°C° 0 mm 1 m/s 745 mmHg 97%
    07:00 +24°C° 0 mm 1 m/s 745 mmHg 87%
    08:00 +26°C° 0 mm 1 m/s 745 mmHg 77%
    09:00 +28°C° 0 mm 1 m/s 746 mmHg 67%
    10:00 +30°C° 0 mm 1 m/s 745 mmHg 61%
    11:00 +32°C° 0 mm 1 m/s 745 mmHg 54%
    12:00 +33°C° 0 mm 1 m/s 745 mmHg 47%
    13:00 +33°C° 0 mm 1 m/s 745 mmHg 48%
    14:00 +33°C° 0 mm 1 m/s 744 mmHg 48%
    15:00 +33°C° 0 mm 1 m/s 744 mmHg 48%
    16:00 +32°C° 0 mm 1 m/s 744 mmHg 57%
    17:00 +31°C° 0 mm 1 m/s 744 mmHg 65%
    18:00 +30°C° 0 mm 1 m/s 744 mmHg 74%
    19:00 +28°C° 0.1 mm 1 m/s 744 mmHg 81%
    20:00 +26°C° 0.1 mm 1 m/s 745 mmHg 87%
    21:00 +22°C° 0.1 mm 0 m/s 745 mmHg 94%
    22:00 +22°C° 0 mm 0 m/s 745 mmHg 95%
    23:00 +21°C° 0 mm 0 m/s 745 mmHg 95%

    21 Julho, Domingo

    Tempo Temperatura Precipitação Vento Pressão Humidade
    00:00 +21°C° 0 mm 0 m/s 745 mmHg 96%
    01:00 +20°C° 0 mm 0 m/s 745 mmHg 96%
    02:00 +20°C° 0 mm 0 m/s 745 mmHg 96%
    03:00 +22°C° 0 mm 1 m/s 746 mmHg 97%
    04:00 +22°C° 0 mm 1 m/s 746 mmHg 96%
    05:00 +22°C° 0 mm 1 m/s 746 mmHg 95%
    06:00 +23°C° 0 mm 1 m/s 746 mmHg 95%
    07:00 +25°C° 0 mm 1 m/s 746 mmHg 85%
    08:00 +28°C° 0 mm 1 m/s 746 mmHg 74%
    09:00 +30°C° 0 mm 1 m/s 746 mmHg 64%
    10:00 +32°C° 0 mm 1 m/s 746 mmHg 58%
    11:00 +34°C° 0 mm 2 m/s 745 mmHg 51%
    12:00 +36°C° 0 mm 2 m/s 745 mmHg 45%
    13:00 +35°C° 0 mm 2 m/s 745 mmHg 50%
    14:00 +34°C° 0 mm 2 m/s 744 mmHg 55%
    15:00 +32°C° 0 mm 2 m/s 744 mmHg 60%
    16:00 +31°C° 0.1 mm 2 m/s 744 mmHg 66%
    17:00 +30°C° 0.1 mm 1 m/s 744 mmHg 72%
    18:00 +29°C° 0.1 mm 1 m/s 744 mmHg 78%
    19:00 +28°C° 0 mm 1 m/s 744 mmHg 81%
    20:00 +26°C° 0 mm 1 m/s 745 mmHg 83%
    21:00 +25°C° 0 mm 1 m/s 745 mmHg 86%
    22:00 +24°C° 0 mm 1 m/s 745 mmHg 87%
    23:00 +24°C° 0 mm 1 m/s 745 mmHg 88%
    Mostrar mais